sat.trackr.live / text

‹ back to catalog

STARLINK-30384

NORAD 57774 · 2023-134D

PAYLOAD ACTIVE UNKNOWN

§ Identity

Operator
Country
US
Launch date
2023-09-04
Launch site
AFETR
Launch vehicle
Mass (kg)
RCS (m²)

Purposes: comms

External: N2YO · Heavens-Above · Gunter

§ Orbital elements

Epoch: 2026-05-25T05:09:52.791840Z

Period
94.27 min
Inclination
43.0049°
Eccentricity
0.0001674
Mean motion
15.27588697 rev/d
Perigee alt
481.9 km
Apogee alt
484.2 km
Semi-major
6,861.2 km
B*
5.1830e-6
RAAN
125.4431°
Arg perigee
280.0208°
Mean anomaly
80.0455°
Rev number
15,117

§ Raw data

STARLINK-303841 57774U 23134D   26145.21519435 -.00000120  00000+0  51830-5 0  99962 57774  43.0049 125.4431 0001674 280.0208  80.0455 15.27588697151175

JSON: /api/v1/satellites/57774 · /tle

For live sub-satellite position, see the globe view (requires WebGL).

§ Visibility from observer

Set your observer location to see the next 7 days of passes ≥ 10°. The values pass through the URL so the page stays shareable.

No JS? Fill the form by hand. The geolocation button needs JavaScript.